Location: Unspecified
(0.0000°N, 0.0000°E)
Time: 05:25:03
(UTC+00:00)

Transit 4A - Pass Details

Date: 06 October 2020
Orbit: 862 x 982 km, 66.8° (Epoch: 28 October)

Event Time Altitude Azimuth Distance (km) Brightness Sun altitude
Rises 05:45:40 0° 3° (N) 3,645 11.0 -0.6°
Reaches altitude 10° 05:48:40 10° 15° (NNE) 2,687 10.5 0.2°
Maximum altitude 05:53:47 26° 70° (ENE) 1,761 10.5 1.4°
Drops below altitude 10° 05:58:47 10° 125° (SE) 2,632 11.5 2.7°
Sets 06:01:40 0° 137° (SE) 3,556 11.8 3.4°
